Regional Weather Roundup
Issued by NWS

Home | Current Version | Previous Version | Graphics & Text | Print | Product List | Glossary On
Versions: 1 2 3 4 5 6 7 8 9 10 11 12 13 14 15 16 17 18 19 20 21 22 23 24 25 26 27 28 29 30 31 32 33 34 35 36 37 38 39 40 41 42 43 44 45 46 47 48 49 50
000
ASUS45 KPSR 311210
RWRAZ

ARIZONA HOURLY REGIONAL WEATHER ROUNDUP
NATIONAL WEATHER SERVICE PHOENIX AZ
500 AM MST FRI JUL 31 2015

NOTE: FAIR INDICATES FEW OR NO CLOUDS BELOW 12,000 FEET WITH NO
SIGNIFICANT WEATHER AND/OR OBSTRUCTIONS TO VISIBILITY.

AZZ001>003-036-311300-
NORTHWEST ARIZONA

CITY           SKY/WX    TMP DP  RH WIND       PRES   REMARKS
BULLHEAD CITY  CLEAR     82  66  57 SE3       29.94R
KINGMAN        PTCLDY    73  55  53 CALM      30.11S
6HR MIN TEMP:  71; 6HR MAX TEMP:  78;

$$

AZZ004>008-015-016-018-311300-
NORTH CENTRAL ARIZONA

CITY           SKY/WX    TMP DP  RH WIND       PRES   REMARKS
GRAND CANYON   CLOUDY    62  50  64 CALM      30.38S
6HR MIN TEMP:  59; 6HR MAX TEMP:  68;

WILLIAMS       PTCLDY    61  52  72 S7        30.45R
PRESCOTT       MOCLDY    65  55  70 CALM      30.26R
6HR MIN TEMP:  63; 6HR MAX TEMP:  70;

FLAGSTAFF      PTCLDY    50  50 100 CALM      30.41S
6HR MIN TEMP:  50; 6HR MAX TEMP:  56;

PAYSON         PTCLDY    68  54  60 CALM      30.28S HAZE
PAGE           MOCLDY    77  54  44 S8        30.21S
6HR MIN TEMP:  77; 6HR MAX TEMP:  84;

$$

AZZ009>014-017-311300-
NORTHEAST ARIZONA

CITY           SKY/WX    TMP DP  RH WIND       PRES   REMARKS
WINSLOW        CLOUDY    66  58  75 SE5       30.29R
6HR MIN TEMP:  65; 6HR MAX TEMP:  74;

SAINT JOHNS    CLEAR     61  56  83 S3        30.32S
6HR MIN TEMP:  61; 6HR MAX TEMP:  66;

SHOW LOW       CLEAR     55  50  82 S5        30.38S
$$

AZZ023-311300-
GREATER PHOENIX AREA

CITY           SKY/WX    TMP DP  RH WIND       PRES   REMARKS
PHOENIX        MOCLDY    90  60  36 CALM      29.92S
6HR MIN TEMP:  90; 6HR MAX TEMP:  98;

LUKE AFB       PTCLDY    86  63  45 N2        29.92S
DEER VALLEY    PTCLDY    85  60  42 CALM      29.95R
6HR MIN TEMP:  85; 6HR MAX TEMP:  94;

SCOTTSDALE     PTCLDY    89  60  37 CALM      29.97R
6HR MIN TEMP:  88; 6HR MAX TEMP:  95;

MESA-GATEWAY   PTCLDY    82  57  42 SE6       29.97R
$$

AZZ027-028-311300-
SOUTHWEST MARICOPA COUNTY AND PINAL COUNTY

CITY           SKY/WX    TMP DP  RH WIND       PRES   REMARKS
CASA GRANDE    CLOUDY    88  61  40 W5        29.94S
6HR MIN TEMP:  88; 6HR MAX TEMP:  93;

GILA BEND      FAIR      87  64  46 S5        29.91S
6HR MIN TEMP:  86; 6HR MAX TEMP:  95;

$$

AZZ503-504-507>509-311300-
SOUTHEAST ARIZONA

CITY           SKY/WX    TMP DP  RH WIND       PRES   REMARKS
TUCSON         CLOUDY    82  65  56 S9        30.06S
6HR MIN TEMP:  82; 6HR MAX TEMP:  89;

DAVIS-MONTHAN  CLOUDY    80  65  60 S6        30.05S
6HR MIN TEMP:  80; 6HR MAX TEMP:  85;

NOGALES        CLOUDY    73  63  70 CALM      30.15S
6HR MIN TEMP:  72; 6HR MAX TEMP:  78;

SIERRA VISTA   CLOUDY    70  60  70 W5        30.21F
6HR MIN TEMP:  69; 6HR MAX TEMP:  77; 6HR PCP: TRACE;

DOUGLAS          N/A    N/A N/A N/A MISG      30.19R
SAFFORD        PTCLDY    80  59  48 E9        30.10R
6HR MIN TEMP:  80; 6HR MAX TEMP:  84;

$$

AZZ020-021-025-026-031-311300-
SOUTHWEST ARIZONA

CITY           SKY/WX    TMP DP  RH WIND       PRES   REMARKS
YUMA           CLEAR     88  66  48 CALM      29.88R
6HR MIN TEMP:  88; 6HR MAX TEMP:  95;

$$

CAZ031-033-041-043-047-048-061-311300-
SOUTHERN CALIFORNIA

CITY           SKY/WX    TMP DP  RH WIND       PRES   REMARKS
DOWNTOWN L.A.  CLOUDY    69  65  86 CALM      30.00R
6HR MIN TEMP:  68; 6HR MAX TEMP:  70;

L.A. AIRPORT   MOCLDY    68  65  90 SW6       30.01R
6HR MIN TEMP:  68; 6HR MAX TEMP:  70;

SAN DIEGO      CLOUDY    72  64  76 CALM      30.01F
6HR MIN TEMP:  71; 6HR MAX TEMP:  72;

BURBANK        CLEAR     71  63  75 SE8       30.00S
6HR MIN TEMP:  71; 6HR MAX TEMP:  76;

ONTARIO        CLEAR     70  63  78 SW5       30.02S
6HR MIN TEMP:  69; 6HR MAX TEMP:  76;

RIVERSIDE      CLEAR     71  65  81 CALM      30.02S
6HR MIN TEMP:  71; 6HR MAX TEMP:  77;

PALM SPRINGS   CLEAR     85  67  54 CALM      29.90S
6HR MIN TEMP:  85; 6HR MAX TEMP:  92;

EL CENTRO NAS  CLEAR     84  66  54 W6        29.87R
6HR MIN TEMP:  84; 6HR MAX TEMP:  92;

IMPERIAL       CLEAR     82  69  64 W6        29.85R
6HR MIN TEMP:  82; 6HR MAX TEMP:  93;

BLYTHE         CLEAR     81  69  67 N3        29.89
6HR MIN TEMP:  80; 6HR MAX TEMP:  86;

NEEDLES        CLEAR     80  71  74 NW3       29.93S
6HR MIN TEMP:  80; 6HR MAX TEMP:  86;

$$

NVZ020-UTZ003-311300-
SOUTHERN NEVADA-UTAH

CITY           SKY/WX    TMP DP  RH WIND       PRES   REMARKS
LAS VEGAS      CLOUDY    89  52  28 SW3       29.97R
6HR MIN TEMP:  89; 6HR MAX TEMP:  94;

SALT LAKE CITY PTCLDY    65  33  30 S7        30.21S
6HR MIN TEMP:  62; 6HR MAX TEMP:  72;

$$

NMZ009-TXZ055-311300-
NEW MEXICO-WEST TEXAS

CITY           SKY/WX    TMP DP  RH WIND       PRES   REMARKS
ALBUQUERQUE    CLOUDY    68  60  75 N3        30.35S
6HR MIN TEMP:  68; 6HR MAX TEMP:  74; 6HR PCP: TRACE;

EL PASO        CLOUDY    73  66  78 N7        30.21F
6HR MIN TEMP:  73; 6HR MAX TEMP:  80; 6HR PCP:  0.05;

$$


........................KEY........................
SKY/WX - SKY CONDITION/WEATHER
TMP    - TEMPERATURE IN FAHRENHEIT
DP     - DEW POINT IN FAHRENHEIT
RH     - RELATIVE HUMIDITY IN PERCENT
WIND   - DIRECTION AND SPEED IN MILES PER HOUR (MPH)
VRB    - VARIABLE WIND DIRECTION
PRES   - MEAN SEA LEVEL PRESSURE IN INCHES OF MERCURY
         F - FALLING PRESSURE   R - RISING PRESSURE
         S - STEADY PRESSURE
VSB    - VISIBILITY IN MILES
HX     - HEAT INDEX IN FAHRENHEIT
WCI    - WIND CHILL INDEX IN FAHRENHEIT
TC     - TEMPERATURE IN CELSIUS WHICH IS ALSO KNOWN AS
         TEMPERATURE IN CENTIGRADE
AFB    - AIR FORCE BASE
         LUKE AFB IS LUKE AIR FORCE BASE
         DAVIS-MONTHAN IS DAVIS-MONTHAN AIR FORCE BASE
NAS    - NAVAL AIR STATION
         EL CENTRO NAS IS EL CENTRO NAVAL AIR STATION
N/A    - NOT AVAILABLE



USA.gov is the U.S. government's official web portal to all federal, state and local government web resources and services.